Location: GMARS
(34.2910°N, 116.3838°W)
Time: 10:53:38
(UTC-07:00)

Tiangong 2 - Visible Passes

Search period start: 25 April 2019 00:00
Search period end: 05 May 2019 00:00
Orbit: 378 x 390 km, 42.8° (Epoch: 25 April)

Date Brightness Start Highest point End Pass type
(mag) Time Alt. Az. Time Alt. Az. Time Alt. Az.
29 Apr 3.7 05:06:05 10° S 05:07:49 14° SE 05:09:34 10° ESE visible
01 May 2.6 04:43:12 19° S 04:44:41 27° SE 04:47:25 10° E visible
02 May 4.0 03:46:10 12° ESE 03:46:10 12° ESE 03:46:41 10° ESE visible
02 May 1.1 05:18:22 11° WSW 05:21:25 73° NNW 05:24:34 10° ENE visible
03 May 1.3 04:21:15 51° S 04:21:35 55° SSE 04:24:41 10° ENE visible
04 May 4.1 03:24:05 13° E 03:24:05 13° E 03:24:31 10° E visible
04 May 1.9 04:56:16 16° W 04:58:27 41° NNW 05:01:28 10° NE visible
